NUSAT-47

导读

NUSAT-47是一颗待公布发射国家的卫星,原计划于2025年11月28日发射。公开信息暂未提及它的具体任务与技术细节,但中国在2025年12月9日成功发射遥感四十七号卫星,该卫星可服务于国土普查、城市规划、防灾减灾等多元领域,将为经济社会发展提供全新数据支撑,其发射任务也标志着长征系列运载火箭刷新飞行纪录。

基本信息
目录编号:
66743
目录名称:
NUSAT-47
国际标识:
2025-276CF
轨道中心:
EARTH
卫星名称:
NUSAT-47
卫星全名:
NUSAT-47
卫星状态:
在轨 (已飞行281 天)
发射日期:
2025-11-28 UTC
国别 :
阿根廷 (AR)
星等 :
--
轨道信息
数据来源 国际轨道数据
星历时间: 2026-09-05T12:17:55+0800
10小时前
查看轨道信息
半长轴: 6880.779km
偏心率: 0.0003366
轨道倾角: 97.412°
近地点辐角 88.582°
升交点赤经 320.523°
平近点角 271.580°
近地点: 500.325km
远地点: 504.959km
周期: 94.671分钟
每日圈数: 15.210602
详细信息
使用方式:
暂无
2D轨道图
3D轨道图
轨道高度分析图
轨道倾角分析图
轨道综合分析图
查看轨道综合分析图
交会数据列表
事件ID 空间交会对象 最接近时刻(TCA) 交会距离 交会风险概率(CRP) 交会风险指数(CRI) 操作
CDM_260830-081306-674306-842024
NUSAT-47 (66743)
ERMIS2 (68420)
2026-08-30T
08:13:22+0000
2.369 km
极远距离
1.774939E-6 低风险 0.4
CDM_260830-090006-674306-842023
NUSAT-47 (66743)
ERMIS2 (68420)
2026-08-30T
09:00:44+0000
2.629 km
极远距离
1.471985E-6 低风险 0.38
CDM_260905-180706-674306-726823
NUSAT-47 (66743)
OBJECT W (67268)
2026-09-05T
18:07:07+0000
2.731 km
极远距离
2.639377E-7 极低风险 0.23